DK4ARL Weather Reports


Display with metric or nautical units.
time (UTC)temp
F
wind
direction
speed
MPH
gust
MPH
rain 1hr
in
rain 24hr
in
rain mn
in
humidity
%
barometer
mb
20260506232752 52 0.0 0.0 0.00 0.14 0.00 973.3
20260506231310 52 0.0 0.0 0.00 0.14 0.00 973.2
20260506224352 52 0.0 0.0 0.00 0.13 0.00 973.0
20260506213038 52 0.0 0.0 0.04 0.09 0.00 972.6
20260506204627 53 0.0 0.0 0.00 0.06 0.00 972.2
20260506203147 53 0.0 0.0 0.03 0.05 0.00 972.1
20260506201706 54 0.0 0.0 0.02 0.04 0.00 972.0
20260506193253 55 0.0 0.0 0.00 0.02 0.00 971.4
20260506191819 55 0.0 0.0 0.00 0.01 0.00 971.2
20260506184845 55 0.0 0.0 0.00 0.01 0.00 970.9
20260506180427 55 0.0 0.0 0.00 0.00 0.00 970.6
20260506170521 55 0.0 0.0 0.00 0.02 0.00 970.4
20260506163542 57 0.0 0.0 0.00 0.02 0.00 970.2
20260506162047 57 0.0 0.0 0.00 0.02 0.00 970.1
20260506153612 57 0.0 0.0 0.00 0.02 0.00 969.8
20260506150623 57 0.0 0.0 0.00 0.03 0.00 969.6
20260506145127 58 0.0 0.0 0.00 0.02 0.00 969.4
20260506140626 65 0.0 0.0 0.00 0.03 0.00 969.0
20260506133620 65 0.0 0.0 0.00 0.03 0.00 969.0
20260506132119 67 0.0 0.0 0.00 0.07 0.00 968.9
20260506130608 69 0.0 0.0 0.00 0.07 0.00 969.0
20260506123550 71 0.0 0.0 0.00 0.07 0.00 969.1
20260506122040 69 0.0 0.0 0.00 0.09 0.00 969.2
20260506120528 70 0.0 0.0 0.00 0.09 0.00 969.2
20260506111945 72 0.0 0.0 0.00 0.09 0.00 969.5
20260506103403 73 0.0 0.0 0.00 0.09 0.00 969.8
20260506100357 68 0.0 0.0 0.00 0.09 0.00 969.9
20260506091827 65 0.0 0.0 0.00 0.09 0.00 970.0
20260506090322 70 0.0 0.0 0.00 0.09 0.00 970.1
20260506084819 69 0.0 0.0 0.00 0.09 0.00 970.1
20260506083319 69 0.0 0.0 0.00 0.09 0.00 970.1
20260506081821 62 0.0 0.0 0.00 0.09 0.00 970.1
20260506080325 63 0.0 0.0 0.00 0.09 0.00 970.1
20260506073341 65 0.0 0.0 0.00 0.09 0.00 970.1
20260506062000 55 0.0 0.0 0.00 0.09 0.00 970.3
20260506060522 52 0.0 0.0 0.00 0.09 0.00 970.3
20260506043740 49 0.0 0.0 0.00 0.09 0.00 970.5
20260506042259 49 0.0 0.0 0.00 0.09 0.00 970.5
20260506040832 49 0.0 0.0 0.00 0.09 0.00 970.6
20260506033918 50 0.0 0.0 0.00 0.09 0.00 970.6
20260506032443 49 0.0 0.0 0.00 0.09 0.00 970.7
20260506025527 49 0.0 0.0 0.00 0.09 0.00 970.9
20260506022610 50 0.0 0.0 0.00 0.09 0.00 971.1
20260506021131 51 0.0 0.0 0.00 0.09 0.00 971.1
20260506014214 50 0.0 0.0 0.00 0.09 0.00 971.1
20260506011255 52 0.0 0.0 0.00 0.09 0.00 971.2
20260506005816 52 0.0 0.0 0.00 0.09 0.00 971.3
20260506004337 52 0.0 0.0 0.00 0.09 0.00 971.4
20260506002857 52 0.0 0.0 0.00 0.09 0.00 971.5
20260506001417 53 0.0 0.0 0.00 0.09 0.00 971.6
20260505235938 53 0.0 0.0 0.00 0.09 0.00 971.7
20260505234457 54 0.0 0.0 0.00 0.09 0.00 971.7